| time (UTC) | temp F | wind direction | speed MPH | gust MPH | rain 1hr in | rain 24hr in | rain mn in | humidity % | barometer mb |
| 20260506101543 | 75 | 153 | 3.0 | 9.0 | 0.00 | 0.00 | 0.00 | 91 | 1007.5 |
| 20260506100041 | 76 | 150 | 4.0 | 10.0 | 0.00 | 0.00 | 0.00 | 91 | 1007.5 |
| 20260506094549 | 76 | 148 | 5.0 | 9.0 | 0.00 | 0.00 | 0.00 | 91 | 1007.3 |
| 20260506093037 | 76 | 176 | 4.0 | 10.0 | 0.00 | 0.00 | 0.00 | 91 | 1007.3 |
| 20260506091536 | 76 | 162 | 6.0 | 12.0 | 0.00 | 0.00 | 0.00 | 91 | 1007.3 |
| 20260506090034 | 76 | 167 | 5.0 | 10.0 | 0.00 | 0.00 | 0.00 | 90 | 1007.6 |
| 20260506084534 | 76 | 155 | 5.0 | 9.0 | 0.00 | 0.00 | 0.00 | 90 | 1007.7 |
| 20260506083033 | 76 | 173 | 6.0 | 11.0 | 0.00 | 0.00 | 0.00 | 89 | 1007.5 |
| 20260506081532 | 76 | 188 | 4.0 | 11.0 | 0.00 | 0.00 | 0.00 | 89 | 1007.5 |
| 20260506073028 | 77 | 150 | 6.0 | 10.0 | 0.00 | 0.00 | 0.00 | 88 | 1007.9 |
| 20260506071531 | 77 | 162 | 4.0 | 11.0 | 0.00 | 0.00 | 0.00 | 87 | 1007.9 |
| 20260506061531 | 77 | 146 | 10.0 | 14.0 | 0.00 | 0.00 | 0.00 | 88 | 1008.1 |
| 20260506044513 | 77 | 140 | 11.0 | 16.0 | 0.00 | 0.00 | 0.00 | 88 | 1008.1 |
| 20260506043013 | 77 | 123 | 7.0 | 13.0 | 0.00 | 0.00 | 0.00 | 88 | 1008.0 |
| 20260506041517 | 77 | 145 | 9.0 | 15.0 | 0.00 | 0.00 | 0.00 | 88 | 1007.9 |
| 20260506040033 | 78 | 152 | 12.0 | 16.0 | 0.00 | 0.00 | 0.00 | 87 | 1007.5 |
| 20260506034511 | 78 | 148 | 8.0 | 16.0 | 0.00 | 0.00 | 0.00 | 87 | 1007.5 |
| 20260506033011 | 78 | 128 | 10.0 | 14.0 | 0.00 | 0.00 | 0.00 | 87 | 1007.5 |
| 20260506031524 | 78 | 120 | 8.0 | 14.0 | 0.00 | 0.00 | 0.00 | 86 | 1007.4 |
| 20260506030009 | 79 | 155 | 8.0 | 14.0 | 0.00 | 0.00 | 0.00 | 85 | 1007.1 |
| 20260506024516 | 79 | 143 | 12.0 | 16.0 | 0.00 | 0.00 | 0.00 | 84 | 1007.0 |
| 20260506023010 | 80 | 154 | 10.0 | 15.0 | 0.00 | 0.00 | 0.00 | 84 | 1006.8 |
| 20260506021509 | 80 | 132 | 11.0 | 16.0 | 0.00 | 0.00 | 0.00 | 83 | 1006.3 |
| 20260506020006 | 81 | 144 | 12.0 | 16.0 | 0.00 | 0.00 | 0.00 | 82 | 1006.2 |
| 20260506014510 | 81 | 360 | 10.0 | 14.0 | 0.00 | 0.00 | 0.00 | 81 | 1006.2 |
| 20260506013004 | 82 | 140 | 10.0 | 15.0 | 0.00 | 0.00 | 0.00 | 81 | 1006.0 |
| 20260506011504 | 82 | 134 | 9.0 | 13.0 | 0.00 | 0.00 | 0.00 | 80 | 1005.7 |
| 20260506010008 | 83 | 123 | 9.0 | 13.0 | 0.00 | 0.00 | 0.00 | 79 | 1005.4 |
| 20260506004506 | 83 | 137 | 6.0 | 12.0 | 0.00 | 0.00 | 0.00 | 77 | 1005.2 |
| 20260506003000 | 84 | 130 | 8.0 | 14.0 | 0.00 | 0.00 | 0.00 | 76 | 1005.1 |
| 20260506001600 | 85 | 127 | 9.0 | 11.0 | 0.00 | 0.00 | 0.00 | 75 | 1005.0 |
| 20260506001501 | 85 | 132 | 8.0 | 11.0 | 0.00 | 0.00 | 0.00 | 75 | 1005.1 |
| 20260505234606 | 85 | 136 | 7.0 | 14.0 | 0.00 | 0.00 | 0.00 | 74 | 1004.8 |
| 20260505233110 | 85 | 122 | 6.0 | 11.0 | 0.00 | 0.00 | 0.00 | 74 | 1004.7 |
| 20260505231605 | 86 | 140 | 7.0 | 13.0 | 0.00 | 0.00 | 0.00 | 72 | 1004.8 |
| 20260505230055 | 86 | 130 | 9.0 | 15.0 | 0.00 | 0.00 | 0.00 | 72 | 1004.6 |
| 20260505224554 | 86 | 167 | 7.0 | 12.0 | 0.00 | 0.00 | 0.00 | 72 | 1004.9 |
| 20260505223055 | 87 | 129 | 9.0 | 14.0 | 0.00 | 0.00 | 0.00 | 71 | 1004.9 |
| 20260505221552 | 87 | 157 | 5.0 | 13.0 | 0.00 | 0.00 | 0.00 | 70 | 1004.9 |
| 20260505220050 | 87 | 113 | 8.0 | 14.0 | 0.00 | 0.00 | 0.00 | 70 | 1005.1 |
| 20260505214552 | 87 | 175 | 6.0 | 13.0 | 0.00 | 0.00 | 0.00 | 72 | 1005.3 |
| 20260505213044 | 86 | 147 | 8.0 | 12.0 | 0.00 | 0.00 | 0.00 | 71 | 1005.6 |
| 20260505211542 | 86 | 148 | 4.0 | 12.0 | 0.00 | 0.00 | 0.00 | 71 | 1005.9 |
| 20260505210041 | 86 | 171 | 5.0 | 12.0 | 0.00 | 0.00 | 0.00 | 72 | 1005.9 |
| 20260505204537 | 86 | 161 | 8.0 | 13.0 | 0.00 | 0.00 | 0.00 | 72 | 1006.3 |
| 20260505203033 | 86 | 165 | 4.0 | 14.0 | 0.00 | 0.00 | 0.00 | 72 | 1006.4 |
| 20260505201531 | 85 | 126 | 6.0 | 12.0 | 0.00 | 0.00 | 0.00 | 72 | 1006.7 |
| 20260505200038 | 85 | 123 | 5.0 | 14.0 | 0.00 | 0.00 | 0.00 | 73 | 1006.9 |
| 20260505194525 | 85 | 161 | 4.0 | 11.0 | 0.00 | 0.00 | 0.00 | 75 | 1007.0 |
| 20260505193022 | 84 | 149 | 5.0 | 10.0 | 0.00 | 0.00 | 0.00 | 74 | 1007.3 |
| 20260505191518 | 83 | 157 | 3.0 | 8.0 | 0.00 | 0.00 | 0.00 | 76 | 1007.7 |
| 20260505190024 | 83 | 190 | 6.0 | 9.0 | 0.00 | 0.00 | 0.00 | 75 | 1007.7 |
| 20260505184516 | 83 | 153 | 6.0 | 12.0 | 0.00 | 0.00 | 0.00 | 76 | 1007.9 |
| 20260505183014 | 82 | 182 | 6.0 | 10.0 | 0.00 | 0.00 | 0.00 | 77 | 1008.2 |
| 20260505181512 | 82 | 167 | 6.0 | 11.0 | 0.00 | 0.00 | 0.00 | 78 | 1008.2 |
| 20260505180010 | 80 | 176 | 5.0 | 9.0 | 0.00 | 0.00 | 0.00 | 80 | 1008.3 |
| 20260505174507 | 80 | 184 | 6.0 | 12.0 | 0.00 | 0.00 | 0.00 | 81 | 1008.5 |
| 20260505173003 | 79 | 163 | 3.0 | 9.0 | 0.00 | 0.00 | 0.00 | 82 | 1008.5 |
| 20260505171502 | 78 | 184 | 7.0 | 12.0 | 0.00 | 0.00 | 0.00 | 83 | 1008.6 |
| 20260505170059 | 78 | 200 | 3.0 | 9.0 | 0.00 | 0.00 | 0.00 | 85 | 1008.8 |
| 20260505164617 | 77 | 208 | 5.0 | 11.0 | 0.00 | 0.00 | 0.00 | 85 | 1008.7 |
| 20260505163102 | 77 | 205 | 7.0 | 13.0 | 0.00 | 0.00 | 0.00 | 85 | 1008.8 |
| 20260505161605 | 76 | 203 | 6.0 | 12.0 | 0.00 | 0.00 | 0.00 | 87 | 1008.8 |
| 20260505153045 | 75 | 240 | 7.0 | 13.0 | 0.00 | 0.00 | 0.00 | 89 | 1008.8 |
| 20260505151546 | 74 | 199 | 7.0 | 14.0 | 0.00 | 0.00 | 0.00 | 89 | 1008.6 |
| 20260505124513 | 71 | 209 | 8.0 | 15.0 | 0.00 | 0.00 | 0.00 | 92 | 1008.2 |
| 20260505123008 | 71 | 209 | 8.0 | 15.0 | 0.00 | 0.00 | 0.00 | 92 | 1008.1 |
| 20260505121508 | 71 | 208 | 9.0 | 14.0 | 0.00 | 0.00 | 0.00 | 92 | 1008.0 |
| 20260505120010 | 71 | 194 | 7.0 | 14.0 | 0.00 | 0.00 | 0.00 | 92 | 1007.7 |
| 20260505114506 | 71 | 209 | 6.0 | 11.0 | 0.00 | 0.00 | 0.00 | 92 | 1007.6 |
| 20260505113007 | 71 | 190 | 9.0 | 15.0 | 0.00 | 0.00 | 0.00 | 92 | 1007.6 |
| 20260505111511 | 71 | 160 | 8.0 | 14.0 | 0.00 | 0.00 | 0.00 | 92 | 1007.6 |